Location: Newark
(45.5167°N, 11.1667°E)
Time: 05:54:49
(UTC+00:00)

Explorer 7 - Pass Details

Date: 17 December 2019
Orbit: 485 x 679 km, 50.3° (Epoch: 19 January)

Event Time Altitude Azimuth Distance (km) Brightness Sun altitude
Rises 13:43:01 0° 253° (WSW) 2,932 11.4 13.0°
Reaches altitude 10° 13:45:19 10° 255° (WSW) 2,050 10.7 12.7°
Maximum altitude 13:50:04 71° 340° (NNW) 709 7.5 12.3°
Drops below altitude 10° 13:54:59 10° 64° (ENE) 2,117 9.3 11.7°
Sets 13:57:23 0° 67° (ENE) 3,037 10.1 11.5°
